When you browse on this site, cookies collect data to enhance your experience and personalize the content and advertising you see.
Visit our Privacy Policy to learn more. By continuing to use the site, you agree to this use of cookies and data.
  • In Lithuania
  • List of Countries
  • For 7 days
  • Water Temperature
  • Satellite Maps
  • Weather Map
  • Weather Widgets
  • user-avatar
    Login

    Hourly Weather Yulara

    Today, 21 May, Tuesday

    Time Temperature Precipitation Wind Pressure Humidity
    00:00 +25°C° 0 mm 2 mps 722 mmHg 35%
    01:00 +24°C° 0 mm 2 mps 722 mmHg 31%
    02:00 +24°C° 0 mm 3 mps 721 mmHg 27%
    03:00 +22°C° 0 mm 3 mps 721 mmHg 24%
    04:00 +22°C° 0 mm 3 mps 721 mmHg 25%
    05:00 +22°C° 0 mm 3 mps 722 mmHg 25%
    06:00 +22°C° 0 mm 3 mps 722 mmHg 25%
    07:00 +24°C° 0 mm 3 mps 722 mmHg 26%
    08:00 +25°C° 0 mm 2 mps 722 mmHg 28%
    09:00 +26°C° 0 mm 2 mps 723 mmHg 26%
    10:00 +27°C° 0 mm 2 mps 722 mmHg 26%
    11:00 +29°C° 0 mm 2 mps 722 mmHg 25%
    12:00 +30°C° 0 mm 2 mps 722 mmHg 25%
    13:00 +30°C° 0 mm 2 mps 722 mmHg 23%
    14:00 +31°C° 0 mm 1 mps 721 mmHg 21%
    15:00 +31°C° 0 mm 1 mps 721 mmHg 19%
    16:00 +30°C° 0 mm 1 mps 721 mmHg 21%
    17:00 +29°C° 0 mm 1 mps 721 mmHg 23%
    18:00 +27°C° 0 mm 2 mps 721 mmHg 24%
    19:00 +27°C° 0 mm 2 mps 722 mmHg 24%
    20:00 +26°C° 0 mm 2 mps 722 mmHg 24%
    21:00 +26°C° 0 mm 3 mps 722 mmHg 24%
    22:00 +25°C° 0 mm 3 mps 723 mmHg 24%
    23:00 +25°C° 0 mm 4 mps 723 mmHg 25%

    Tomorrow, 22 May, Wednesday

    Time Temperature Precipitation Wind Pressure Humidity
    00:00 +23°C° 0 mm 4 mps 723 mmHg 25%
    01:00 +23°C° 0 mm 4 mps 723 mmHg 28%
    02:00 +22°C° 0 mm 4 mps 723 mmHg 32%
    03:00 +22°C° 0 mm 3 mps 723 mmHg 35%
    04:00 +21°C° 0 mm 3 mps 723 mmHg 37%
    05:00 +21°C° 0 mm 3 mps 723 mmHg 38%
    06:00 +20°C° 0 mm 3 mps 723 mmHg 40%
    07:00 +22°C° 0 mm 4 mps 724 mmHg 38%
    08:00 +23°C° 0 mm 4 mps 724 mmHg 36%
    09:00 +25°C° 0 mm 5 mps 724 mmHg 34%
    10:00 +26°C° 0 mm 5 mps 724 mmHg 31%
    11:00 +28°C° 0 mm 5 mps 724 mmHg 28%
    12:00 +29°C° 0 mm 5 mps 724 mmHg 25%
    13:00 +29°C° 0 mm 4 mps 724 mmHg 24%
    14:00 +30°C° 0 mm 4 mps 723 mmHg 23%
    15:00 +30°C° 0 mm 4 mps 723 mmHg 22%
    16:00 +29°C° 0 mm 3 mps 723 mmHg 24%
    17:00 +28°C° 0 mm 3 mps 723 mmHg 25%
    18:00 +26°C° 0 mm 3 mps 723 mmHg 27%
    19:00 +26°C° 0 mm 4 mps 724 mmHg 28%
    20:00 +25°C° 0 mm 4 mps 724 mmHg 30%
    21:00 +23°C° 0 mm 4 mps 724 mmHg 31%
    22:00 +22°C° 0 mm 4 mps 724 mmHg 33%
    23:00 +22°C° 0 mm 4 mps 724 mmHg 35%

    Day after tomorrow, 23 May, Thursday

    Time Temperature Precipitation Wind Pressure Humidity
    00:00 +21°C° 0 mm 4 mps 724 mmHg 36%
    01:00 +21°C° 0 mm 4 mps 724 mmHg 38%
    02:00 +20°C° 0 mm 4 mps 724 mmHg 39%
    03:00 +19°C° 0 mm 4 mps 724 mmHg 40%
    04:00 +19°C° 0 mm 3 mps 724 mmHg 41%
    05:00 +19°C° 0 mm 3 mps 724 mmHg 42%
    06:00 +18°C° 0 mm 3 mps 724 mmHg 43%
    07:00 +20°C° 0 mm 3 mps 724 mmHg 40%
    08:00 +21°C° 0 mm 4 mps 724 mmHg 37%
    09:00 +22°C° 0 mm 4 mps 725 mmHg 34%
    10:00 +25°C° 0 mm 5 mps 725 mmHg 31%
    11:00 +26°C° 0 mm 5 mps 724 mmHg 28%
    12:00 +28°C° 0 mm 5 mps 724 mmHg 24%
    13:00 +28°C° 0 mm 5 mps 723 mmHg 23%
    14:00 +28°C° 0 mm 5 mps 723 mmHg 21%
    15:00 +29°C° 0 mm 4 mps 722 mmHg 20%
    16:00 +27°C° 0 mm 4 mps 722 mmHg 22%
    17:00 +26°C° 0 mm 3 mps 722 mmHg 23%
    18:00 +25°C° 0 mm 3 mps 722 mmHg 25%
    19:00 +24°C° 0 mm 3 mps 723 mmHg 26%
    20:00 +22°C° 0 mm 3 mps 723 mmHg 28%
    21:00 +21°C° 0 mm 3 mps 724 mmHg 29%
    22:00 +21°C° 0 mm 3 mps 724 mmHg 31%
    23:00 +20°C° 0 mm 2 mps 724 mmHg 33%

    24 May, Friday

    Time Temperature Precipitation Wind Pressure Humidity
    00:00 +20°C° 0 mm 2 mps 723 mmHg 34%
    01:00 +19°C° 0 mm 2 mps 723 mmHg 36%
    02:00 +19°C° 0 mm 2 mps 723 mmHg 38%
    03:00 +18°C° 0 mm 2 mps 722 mmHg 39%
    04:00 +18°C° 0 mm 2 mps 722 mmHg 41%
    05:00 +17°C° 0 mm 2 mps 722 mmHg 43%
    06:00 +17°C° 0 mm 2 mps 722 mmHg 45%
    07:00 +18°C° 0 mm 2 mps 722 mmHg 42%
    08:00 +19°C° 0 mm 2 mps 723 mmHg 39%
    09:00 +21°C° 0 mm 2 mps 723 mmHg 36%
    10:00 +23°C° 0 mm 2 mps 723 mmHg 33%
    11:00 +25°C° 0 mm 2 mps 722 mmHg 30%
    12:00 +26°C° 0 mm 3 mps 722 mmHg 28%
    13:00 +26°C° 0 mm 2 mps 722 mmHg 26%
    14:00 +27°C° 0 mm 1 mps 721 mmHg 25%
    15:00 +25°C° 0 mm 0 mps 720 mmHg 23%
    16:00 +24°C° 0 mm 0 mps 720 mmHg 25%
    17:00 +25°C° 0 mm 1 mps 720 mmHg 27%
    18:00 +24°C° 0 mm 1 mps 720 mmHg 30%
    19:00 +24°C° 0 mm 2 mps 721 mmHg 30%
    20:00 +23°C° 0 mm 2 mps 721 mmHg 30%
    21:00 +23°C° 0 mm 2 mps 721 mmHg 31%
    22:00 +21°C° 0 mm 2 mps 721 mmHg 32%
    23:00 +20°C° 0 mm 2 mps 721 mmHg 34%

    25 May, Saturday

    Time Temperature Precipitation Wind Pressure Humidity
    00:00 +21°C° 0 mm 1 mps 721 mmHg 35%
    01:00 +20°C° 0 mm 1 mps 720 mmHg 37%
    02:00 +19°C° 0 mm 1 mps 720 mmHg 39%
    03:00 +16°C° 0 mm 0 mps 720 mmHg 42%
    04:00 +16°C° 0 mm 0 mps 720 mmHg 42%
    05:00 +16°C° 0 mm 0 mps 720 mmHg 42%
    06:00 +16°C° 0 mm 1 mps 720 mmHg 42%
    07:00 +19°C° 0 mm 1 mps 721 mmHg 38%
    08:00 +21°C° 0 mm 1 mps 721 mmHg 34%
    09:00 +23°C° 0 mm 1 mps 722 mmHg 29%
    10:00 +24°C° 0 mm 1 mps 721 mmHg 27%
    11:00 +26°C° 0 mm 1 mps 721 mmHg 25%
    12:00 +27°C° 0 mm 1 mps 721 mmHg 23%
    13:00 +28°C° 0 mm 1 mps 720 mmHg 22%
    14:00 +28°C° 0 mm 1 mps 720 mmHg 21%
    15:00 +29°C° 0 mm 1 mps 719 mmHg 21%
    16:00 +27°C° 0 mm 2 mps 719 mmHg 23%
    17:00 +26°C° 0 mm 2 mps 720 mmHg 25%
    18:00 +25°C° 0 mm 2 mps 720 mmHg 28%
    19:00 +24°C° 0 mm 3 mps 720 mmHg 32%
    20:00 +22°C° 0 mm 4 mps 721 mmHg 36%
    21:00 +21°C° 0 mm 5 mps 721 mmHg 40%
    22:00 +21°C° 0 mm 5 mps 721 mmHg 42%
    23:00 +21°C° 0 mm 6 mps 721 mmHg 43%

    26 May, Sunday

    Time Temperature Precipitation Wind Pressure Humidity
    00:00 +21°C° 0 mm 6 mps 721 mmHg 45%
    01:00 +20°C° 0 mm 6 mps 721 mmHg 47%
    02:00 +20°C° 0 mm 5 mps 721 mmHg 50%
    03:00 +19°C° 0 mm 5 mps 721 mmHg 52%
    04:00 +19°C° 0 mm 5 mps 722 mmHg 53%
    05:00 +17°C° 0 mm 6 mps 722 mmHg 54%
    06:00 +17°C° 0 mm 6 mps 722 mmHg 55%
    07:00 +17°C° 0 mm 6 mps 723 mmHg 52%
    08:00 +17°C° 0 mm 6 mps 723 mmHg 48%
    09:00 +19°C° 0 mm 6 mps 723 mmHg 45%
    10:00 +20°C° 0 mm 6 mps 723 mmHg 42%
    11:00 +22°C° 0 mm 6 mps 723 mmHg 38%
    12:00 +23°C° 0 mm 5 mps 722 mmHg 35%
    13:00 +25°C° 0 mm 5 mps 722 mmHg 34%
    14:00 +25°C° 0 mm 4 mps 721 mmHg 33%
    15:00 +25°C° 0 mm 4 mps 721 mmHg 32%
    16:00 +25°C° 0 mm 4 mps 721 mmHg 34%
    17:00 +23°C° 0 mm 4 mps 721 mmHg 36%
    18:00 +22°C° 0 mm 3 mps 722 mmHg 38%
    19:00 +21°C° 0 mm 4 mps 722 mmHg 40%
    20:00 +20°C° 0 mm 4 mps 722 mmHg 43%
    21:00 +19°C° 0 mm 4 mps 723 mmHg 46%
    22:00 +19°C° 0 mm 4 mps 723 mmHg 48%
    23:00 +18°C° 0 mm 4 mps 723 mmHg 50%
    Show more